Weather History for Fort Meade, MD

Change the Weather History Date:

Wednesday, February 6, 2013

  Actual Average (KBWI) Record (KBWI)
Temperature  
Mean Temperature 34 °F 34 °F  
Max Temperature 44 °F 43 °F 72 °F (2008)
Min Temperature 23 °F 25 °F 1 °F (1895)
Degree Days  
Heating Degree Days 31 31  
Month to date heating degree days 186  
Since 1 July heating degree days 2962  
Cooling Degree Days 0 0  
Month to date cooling degree days 0  
Year to date cooling degree days 0  
Moisture  
Dew Point 25 °F    
Average Humidity 72    
Maximum Humidity 100    
Minimum Humidity 46    
Precipitation  
Precipitation 0.00 in 0.10 in 3.48 in (1896)
Month to date precipitation 0.62  
Year to date precipitation 3.67  
Snow  
Snow 0.00 in 0.30 in 21.00 in (2010)
Month to date snowfall 2.0  
Since 1 July snowfall 12.2  
Snow Depth -    
Sea Level Pressure  
Sea Level Pressure 30.19 in    
Wind  
Wind Speed 3 mph (NW)    
Max Wind Speed 15 mph    
Max Gust Speed 22 mph    
Visibility 9 miles    
Events      
T = Trace of Precipitation, MM = Missing Value Source: NWS Daily Summary

Daily Weather History Graph

Daily Weather History Graph

Search for Another Location

Airport:

Trip Planner

Search our weather history database for the weather conditions in past years. The results will help you decide how hot, cold, wet, or windy it might be!

Date:

Astronomy

Feb. 06, 2013 Rise Set
Actual Time 7:08 AM EST 5:34 PM EST
Civil Twilight 6:40 AM EST 6:02 PM EST
Nautical Twilight 6:09 AM EST 6:33 PM EST
Astronomical Twilight 5:37 AM EST 7:05 PM EST
Moon 3:49 AM EST (2/6) 1:51 PM EST (2/6)
Length of Visible Light 11h 21m
Length of Day
10h 25m
Waning Crescent, 17% of the Moon is Illuminated
Feb 6
Waning Crescent
Feb 10
New
Feb 17
First Quarter
Feb 25
Full
Mar 4
Last Quarter

Hourly Weather History & Observations

Time (EST) Temp. Windchill Dew Point Humidity Pressure Visibility Wind Dir Wind Speed Gust Speed Precip Events Conditions
12:15 AM 32.0 °F - 28.4 °F 87% 29.96 in 10.0 mi Calm Calm - N/A   Overcast
12:57 AM 32.0 °F - 30.2 °F 93% 29.97 in 10.0 mi Calm Calm - N/A   Overcast
1:18 AM 32.0 °F - 30.2 °F 93% 29.97 in 10.0 mi Calm Calm - N/A   Overcast
2:00 AM 32.0 °F - 28.4 °F 87% 29.97 in 7.0 mi Calm Calm - N/A   Overcast
2:21 AM 30.2 °F - 26.6 °F 86% 29.97 in 7.0 mi Calm Calm - N/A   Scattered Clouds
2:45 AM 28.4 °F - 26.6 °F 93% 29.97 in 7.0 mi Calm Calm - N/A   Scattered Clouds
3:06 AM 30.2 °F - 28.4 °F 93% 29.98 in 5.0 mi Calm Calm - N/A   Overcast
3:27 AM 30.2 °F - 28.4 °F 93% 29.98 in 7.0 mi Calm Calm - N/A   Overcast
3:48 AM 30.2 °F - 28.4 °F 93% 29.98 in 7.0 mi Calm Calm - N/A   Mostly Cloudy
4:09 AM 30.2 °F - 28.4 °F 93% 30.00 in 7.0 mi Calm Calm - N/A   Overcast
4:30 AM 30.2 °F - 28.4 °F 93% 30.01 in 7.0 mi Calm Calm - N/A   Overcast
4:51 AM 30.2 °F - 28.4 °F 93% 30.02 in 7.0 mi Calm Calm - N/A   Overcast
5:12 AM 32.0 °F - 28.4 °F 87% 30.03 in 7.0 mi Calm Calm - N/A   Overcast
5:33 AM 30.2 °F - 28.4 °F 93% 30.04 in 7.0 mi Calm Calm - N/A   Overcast
5:57 AM 30.2 °F - 28.4 °F 93% 30.06 in 7.0 mi Calm Calm - N/A   Overcast
6:18 AM 30.2 °F - 28.4 °F 93% 30.07 in 7.0 mi Calm Calm - N/A   Scattered Clouds
6:39 AM 28.4 °F - 26.6 °F 93% 30.08 in 5.0 mi Calm Calm - N/A   Clear
7:00 AM 28.4 °F - 26.6 °F 93% 30.09 in 5.0 mi Calm Calm - N/A   Clear
7:21 AM 28.4 °F - 26.6 °F 93% 30.11 in 4.0 mi Calm Calm - N/A   Clear
7:42 AM 28.4 °F - 26.6 °F 93% 30.11 in 4.0 mi Calm Calm - N/A   Clear
8:03 AM 28.4 °F - 28.4 °F 100% 30.13 in 4.0 mi Calm Calm - N/A   Clear
8:24 AM 32.0 °F 27.5 °F 30.2 °F 93% 30.15 in 7.0 mi NNW 4.6 mph - N/A   Clear
8:45 AM 37.4 °F 30.3 °F 30.2 °F 75% 30.16 in 10.0 mi NW 10.4 mph - N/A   Clear
9:06 AM 41.0 °F 33.1 °F 30.2 °F 65% 30.16 in 10.0 mi NW 15.0 mph 19.6 mph N/A   Clear
9:30 AM 41.0 °F 33.9 °F 28.4 °F 61% 30.17 in 10.0 mi NW 12.7 mph 19.6 mph N/A   Scattered Clouds
9:48 AM 42.8 °F 39.3 °F 28.4 °F 57% 30.18 in 10.0 mi NW 5.8 mph - N/A   Scattered Clouds
10:12 AM 42.8 °F 35.4 °F 28.4 °F 57% 30.19 in 10.0 mi WNW 15.0 mph 20.7 mph N/A   Scattered Clouds
10:57 AM 41.0 °F 34.7 °F 26.6 °F 57% 30.21 in 10.0 mi WNW 10.4 mph - N/A   Overcast
11:18 AM 41.0 °F 35.2 °F 26.6 °F 57% 30.22 in 10.0 mi NW 9.2 mph 16.1 mph N/A   Overcast
11:39 AM 41.0 °F 35.8 °F 26.6 °F 57% 30.22 in 10.0 mi NNW 8.1 mph - N/A   Overcast
12:00 PM 42.8 °F 36.6 °F 24.8 °F 49% 30.22 in 10.0 mi NW 11.5 mph 21.9 mph N/A   Mostly Cloudy
12:03 PM 41.0 °F 35.2 °F 24.8 °F 53% 30.22 in 10.0 mi NW 9.2 mph 21.9 mph N/A   Mostly Cloudy
12:15 PM 41.0 °F 33.1 °F 24.8 °F 53% 30.22 in 10.0 mi WNW 15.0 mph 19.6 mph N/A   Mostly Cloudy
12:36 PM 42.8 °F 37.5 °F 23.0 °F 46% 30.21 in 10.0 mi WNW 9.2 mph 19.6 mph N/A   Overcast
12:57 PM 42.8 °F 37.0 °F 24.8 °F 49% 30.21 in 10.0 mi NW 10.4 mph 16.1 mph N/A   Overcast
1:15 PM 42.8 °F 36.6 °F 24.8 °F 49% 30.22 in 10.0 mi NW 11.5 mph 19.6 mph N/A   Mostly Cloudy
1:36 PM 42.8 °F 36.2 °F 23.0 °F 46% 30.22 in 10.0 mi NW 12.7 mph 18.4 mph N/A   Mostly Cloudy
1:57 PM 44.6 °F 38.1 °F 24.8 °F 46% 30.22 in 10.0 mi WNW 13.8 mph 19.6 mph N/A   Scattered Clouds
2:15 PM 42.8 °F 35.8 °F 24.8 °F 49% 30.22 in 10.0 mi WNW 13.8 mph 18.4 mph N/A   Scattered Clouds
2:36 PM 42.8 °F 36.2 °F 24.8 °F 49% 30.22 in 10.0 mi NW 12.7 mph 19.6 mph N/A   Scattered Clouds
2:57 PM 42.8 °F 38.6 °F 24.8 °F 49% 30.22 in 10.0 mi NW 6.9 mph 17.3 mph N/A   Clear
3:15 PM 42.8 °F 37.0 °F 23.0 °F 46% 30.23 in 10.0 mi NNW 10.4 mph 16.1 mph N/A   Clear
3:36 PM 42.8 °F 37.5 °F 23.0 °F 46% 30.23 in 10.0 mi WNW 9.2 mph 20.7 mph N/A   Clear
3:57 PM 41.0 °F 35.2 °F 23.0 °F 49% 30.24 in 10.0 mi NW 9.2 mph 17.3 mph N/A   Clear
4:18 PM 41.0 °F 34.3 °F 23.0 °F 49% 30.24 in 10.0 mi WNW 11.5 mph - N/A   Clear
4:36 PM 41.0 °F 35.2 °F 23.0 °F 49% 30.24 in 10.0 mi WNW 9.2 mph - N/A   Clear
4:57 PM 39.2 °F 31.2 °F 23.0 °F 52% 30.26 in 10.0 mi NW 13.8 mph 17.3 mph N/A   Clear
5:18 PM 37.4 °F 30.8 °F 23.0 °F 56% 30.26 in 10.0 mi NW 9.2 mph 16.1 mph N/A   Clear
5:36 PM 37.4 °F 32.8 °F 23.0 °F 56% 30.26 in 10.0 mi NW 5.8 mph 16.1 mph N/A   Clear
5:57 PM 35.6 °F 30.7 °F 23.0 °F 60% 30.28 in 10.0 mi NNW 5.8 mph - N/A   Clear
6:18 PM 35.6 °F - 23.0 °F 60% 30.29 in 10.0 mi Calm Calm - N/A   Clear
6:36 PM 33.8 °F 29.6 °F 23.0 °F 65% 30.30 in 10.0 mi NW 4.6 mph - N/A   Clear
6:57 PM 35.6 °F 30.7 °F 23.0 °F 60% 30.30 in 10.0 mi NNW 5.8 mph - N/A   Clear
7:18 PM 33.8 °F - 23.0 °F 65% 30.31 in 10.0 mi Calm Calm - N/A   Clear
7:57 PM 32.0 °F 28.7 °F 23.0 °F 69% 30.33 in 10.0 mi NNW 3.5 mph - N/A   Clear
8:18 PM 30.2 °F - 21.2 °F 69% 30.33 in 10.0 mi Calm Calm - N/A   Clear
8:36 PM 30.2 °F - 23.0 °F 75% 30.34 in 10.0 mi Calm Calm - N/A   Clear
8:57 PM 26.6 °F - 21.2 °F 80% 30.35 in 10.0 mi Calm Calm - N/A   Clear
9:18 PM 26.6 °F - 21.2 °F 80% 30.35 in 10.0 mi Calm Calm - N/A   Clear
9:36 PM 26.6 °F - 21.2 °F 80% 30.36 in 10.0 mi Calm Calm - N/A   Clear
9:57 PM 28.4 °F - 21.2 °F 74% 30.37 in 10.0 mi Calm Calm - N/A   Clear
10:18 PM 26.6 °F - 21.2 °F 80% 30.37 in 10.0 mi Calm Calm - N/A   Clear
10:36 PM 26.6 °F - 21.2 °F 80% 30.38 in 10.0 mi Calm Calm - N/A   Clear
10:57 PM 26.6 °F 22.6 °F 23.0 °F 86% 30.39 in 10.0 mi South 3.5 mph - N/A   Clear
11:18 PM 26.6 °F - 21.2 °F 80% 30.38 in 10.0 mi Calm Calm - N/A   Clear
11:36 PM 24.8 °F - 19.4 °F 80% 30.38 in 10.0 mi Calm Calm - N/A   Clear
11:57 PM 23.0 °F - 21.2 °F 93% 30.37 in 10.0 mi Calm Calm - N/A   Clear